Regional Weather Roundup
Issued by NWS Sterling, VA

Home | Current Version | Previous Version | Text Only | Print | Product List | Glossary Off
Versions: 1 2 3 4 5 6 7 8 9 10 11 12 13 14 15 16 17 18 19 20 21 22 23 24 25 26 27 28

000
ASUS41 KLWX 052211
RWRLWX

REGIONAL WEATHER ROUNDUP
NATIONAL WEATHER SERVICE BALTIMORE MD/WASHINGTON DC
600 PM EDT THU MAY 05 2016

Note: "FAIR" indicates few or no clouds below 12,000 feet
with no significant weather and/or obstructions to visibility.
 TC=TEMPERATURE CELSIUS

 * =Non NWS site. Station does not report precipitation (e.g. rain,
    snow, etc.), thunder, or fog.

DCZ001-MDZ009-015-VAZ040>042-051-053>054-052300-
WASHINGTON METRO

CITY           SKY/WX    TMP DP  RH WIND       PRES   REMARKS
WASHINGTON NAT LGT RAIN  56  49  77 NE12      29.64R
DULLES         PTSUNNY   57  47  69 N12       29.63F
ANDREWS AFB    CLOUDY    54  47  77 N15       29.62S
FT BELVOIR     CLOUDY    56  48  73 VRB2      29.62F
QUANTICO       CLOUDY    58  47  66 NE10      29.63S
COLLEGE PARK*  CLOUDY    54  46  76 N5        29.64R
LEESBURG*      CLOUDY    59  52  77 N9        29.65S
MANASSAS*      PTSUNNY   57  48  72 N13G20    29.63S
GAITHERSBURG*  CLOUDY    54  46  76 NE3       29.68R

$$

MDZ006>007-011-014-052300-
BALTIMORE METRO

CITY           SKY/WX    TMP DP  RH WIND       PRES   REMARKS
BWI AIRPORT    CLOUDY    55  46  71 NE8       29.63S
MD SCIENCE CTR   N/A     57  46  66 MISG      29.64S
MARTIN STATE   CLOUDY    57  50  77 NW6       29.64F
ANNAPOLIS      CLOUDY    54  49  83 NW5       29.63S
FORT MEADE*    CLOUDY    54  46  76 N6        29.66S

$$

MDZ012-015-019>023-052300-
MARYLAND EASTERN SHORE

CITY           SKY/WX    TMP DP  RH WIND       PRES   REMARKS
OCEAN CITY     CLOUDY    50  46  86 NE14G22   29.60S
SALISBURY      CLOUDY    52  48  86 NE10      29.61R
CAMBRIDGE*     PTSUNNY   52  46  82 N5        29.61S
EASTON*        CLOUDY   N/A N/A N/A NE9       29.66R

$$

MDZ017>025-052300-
SOUTHERN MARYLAND

CITY           SKY/WX    TMP DP  RH WIND       PRES   REMARKS
PATUXENT RIVER CLOUDY    54  46  74 NE14      29.61S
ST INIGOES     CLOUDY    54  47  77 VRB3      29.61R
LEONARDTOWN*   CLOUDY    52  46  82 NE3       29.63R

$$

MDZ003>005-052300-
NORTH CENTRAL MARYLAND

CITY           SKY/WX    TMP DP  RH WIND       PRES   REMARKS
FREDERICK*     CLOUDY    57  52  82 N7        29.67S
HAGERSTOWN APT CLOUDY    57  45  64 N10       29.64S
WESTMINSTER*   DRIZZLE   54  46  76 N7        29.64F

$$

MDZ501>502-052300-
WESTERN MARYLAND

CITY           SKY/WX    TMP DP  RH WIND       PRES   REMARKS
OAKLAND*       CLOUDY    45  45 100 NW3       29.67R FOG
CUMBERLAND*    PTSUNNY   61  46  59 E3        29.68R

$$

VAZ025>031-052300-
SHENANDOAH VALLEY

CITY           SKY/WX    TMP DP  RH WIND       PRES   REMARKS
WINCHESTER*    CLOUDY    55  46  71 N3        29.65R
FRONT ROYAL*   CLOUDY    54  50  87 CALM      29.64R
LURAY*         CLOUDY    54  50  87 NE6       29.64S
NEW MARKET*    CLOUDY    53  49  86 NE7       29.65R
STAUNTON*      CLOUDY    53  50  90 N6        29.66S
WAYNESBORO*    CLOUDY    49  48  95 N6        29.64S

$$

WVZ021-048>050-054>055-052300-
EASTERN WEST VIRGINIA PANHANDLE

CITY           SKY/WX    TMP DP  RH WIND       PRES   REMARKS
MARTINSBURG    CLOUDY    56  46  69 N14       29.64S
PETERSBURG*    CLOUDY    59  50  71 CALM      29.65F

$$

VAZ036>039-050-052300-
CENTRAL FOOTHILLS

CITY           SKY/WX    TMP DP  RH WIND       PRES   REMARKS
CHARLOTTESVILL CLOUDY    55  48  77 N8        29.63S
CULPEPER*      CLOUDY    56  49  79 N7        29.64S
ORANGE*        CLOUDY    54  50  87 NE7       29.65R
GORDONSVILLE*  CLOUDY    54  49  85 N8        29.63R
WARRENTON*     CLOUDY    57  46  65 N9        29.63R

$$

VAZ055>057-052300-
NORTH AND CENTRAL PIEDMONT

CITY           SKY/WX    TMP DP  RH WIND       PRES   REMARKS
FREDERICKSBRG* CLOUDY    55  52  88 NE3       29.62S
STAFFORD*      CLOUDY    55  48  76 N3        29.66S

$$

NCZ024-NYZ072-PAZ021-071-VAZ022-071-052300-
OTHER REGIONAL OBSERVATIONS

CITY           SKY/WX    TMP DP  RH WIND       PRES   REMARKS
NEW YORK CITY  CLOUDY    56  42  59 NE8       29.66S
PHILADELPHIA   CLOUDY    58  45  62 NE8       29.63S
PITTSBURGH     CLOUDY    56  46  69 N13       29.71R
ROANOKE        CLOUDY    50  44  80 W7        29.68R
RICHMOND       RAIN      51  49  92 N8        29.62R FOG
RALEIGH        PTSUNNY   54  49  83 N12G22    29.62R

$$

ANZ530>537-052300-
MARINE OBSERVATIONS

STATION/POSITION TIME  TEMP    WIND        PRES
                       AIR SEA DIR/SP/G
                 (UTC) (F)     (DEG/KT/KT) (MB)
THOMAS PT LIGHT  2200   53 58  340/  9/ 10 1004.5S
BALT KEY BRIDGE  2100   55      20/ 12/ 15 1003.1F
COVE POINT       2100   53      30/ 14/ 18 1003.0F
LEWISETTA        2100   54 61   10/  9/ 14 1002.2R
SOLOMONS ISLAND  2100   54 60   10/  8/ 11   N/A
PINEY POINT      2100           30/  9/ 10   N/A

$$





USA.gov is the U.S. government's official web portal to all federal, state and local government web resources and services.